Location: Burgberg
(50.1428°N, 11.0671°E)
Time: 21:32:04
(UTC+00:00)

Cosmos 2344 - Pass Details

Date: 26 January 2020
Orbit: 1255 x 2987 km, 63.3° (Epoch: 16 February)

Event Time Altitude Azimuth Distance (km) Brightness Sun altitude
Exits shadow 02:30:57 41° 100° (E) 1,789 4.5 -42.2°
Drops below altitude 10° 02:37:28 10° 50° (NE) 3,489 6.5 -41.2°
Sets 02:40:43 0° 44° (NE) 4,626 7.2 -40.8°
